| time (UTC) | temp F | wind direction | speed MPH | gust MPH | rain 1hr in | rain 24hr in | rain mn in | humidity % | barometer mb |
| 20260905095430 | 73 | 148 | 0.0 | 0.0 | 0.00 | 0.01 | 0.00 | 97 | 1009.9 |
| 20260905094926 | 73 | 148 | 0.0 | 0.0 | 0.00 | 0.01 | 0.00 | 97 | 1009.9 |
| 20260905094442 | 73 | 148 | 0.0 | 0.0 | 0.00 | 0.01 | 0.00 | 97 | 1009.9 |
| 20260905093920 | 74 | 148 | 0.0 | 0.0 | 0.00 | 0.01 | 0.00 | 96 | 1010.0 |
| 20260905093440 | 74 | 148 | 0.0 | 0.0 | 0.00 | 0.01 | 0.00 | 96 | 1010.1 |
| 20260905092413 | 74 | 148 | 0.0 | 0.0 | 0.00 | 0.01 | 0.00 | 96 | 1010.0 |
| 20260905091910 | 74 | 148 | 0.0 | 0.0 | 0.00 | 0.01 | 0.00 | 96 | 1009.9 |
| 20260905091417 | 74 | 148 | 0.0 | 0.0 | 0.00 | 0.01 | 0.00 | 95 | 1010.0 |
| 20260905090910 | 74 | 148 | 0.0 | 0.0 | 0.00 | 0.01 | 0.00 | 95 | 1010.0 |
| 20260905090410 | 74 | 148 | 0.0 | 0.0 | 0.00 | 0.01 | 0.00 | 95 | 1010.1 |
| 20260905085909 | 74 | 148 | 0.0 | 0.0 | 0.00 | 0.01 | 0.00 | 95 | 1010.1 |
| 20260905085410 | 74 | 148 | 0.0 | 0.0 | 0.00 | 0.01 | 0.00 | 95 | 1009.9 |
| 20260905084904 | 74 | 148 | 0.0 | 0.0 | 0.00 | 0.01 | 0.00 | 95 | 1010.1 |
| 20260905084408 | 74 | 148 | 0.0 | 0.0 | 0.00 | 0.01 | 0.00 | 95 | 1010.2 |
| 20260905083902 | 74 | 148 | 0.0 | 0.0 | 0.00 | 0.01 | 0.00 | 95 | 1010.0 |
| 20260905083402 | 74 | 148 | 0.0 | 0.0 | 0.00 | 0.01 | 0.00 | 95 | 1010.0 |
| 20260905082401 | 75 | 148 | 0.0 | 0.0 | 0.00 | 0.02 | 0.00 | 94 | 1010.0 |
| 20260905080839 | 75 | 148 | 0.0 | 0.0 | 0.00 | 0.02 | 0.00 | 94 | 1010.1 |
| 20260905080333 | 75 | 148 | 0.0 | 0.0 | 0.00 | 0.02 | 0.00 | 94 | 1010.2 |
| 20260905075837 | 75 | 148 | 0.0 | 0.0 | 0.00 | 0.02 | 0.00 | 94 | 1010.2 |
| 20260905075335 | 75 | 148 | 0.0 | 0.0 | 0.00 | 0.02 | 0.00 | 94 | 1010.2 |
| 20260905074835 | 75 | 148 | 0.0 | 0.0 | 0.00 | 0.03 | 0.00 | 94 | 1010.1 |
| 20260905073331 | 75 | 148 | 0.0 | 0.0 | 0.00 | 0.04 | 0.00 | 93 | 1009.9 |
| 20260905072840 | 76 | 148 | 0.0 | 0.0 | 0.00 | 0.04 | 0.00 | 93 | 1010.0 |
| 20260905072342 | 76 | 148 | 0.0 | 0.0 | 0.00 | 0.05 | 0.00 | 93 | 1010.1 |
| 20260905071333 | 76 | 148 | 0.0 | 0.0 | 0.00 | 0.07 | 0.00 | 93 | 1010.2 |
| 20260905070831 | 76 | 148 | 0.0 | 0.0 | 0.00 | 0.08 | 0.00 | 93 | 1010.5 |
| 20260905070333 | 77 | 148 | 0.0 | 0.0 | 0.00 | 0.10 | 0.00 | 93 | 1010.5 |
| 20260905065337 | 77 | 148 | 0.0 | 0.0 | 0.00 | 0.13 | 0.00 | 92 | 1010.6 |
| 20260905064839 | 77 | 148 | 0.0 | 0.0 | 0.00 | 0.14 | 0.00 | 92 | 1010.6 |
| 20260905063835 | 78 | 148 | 0.0 | 0.0 | 0.00 | 0.15 | 0.00 | 92 | 1010.5 |
| 20260905063331 | 78 | 148 | 0.0 | 0.0 | 0.00 | 0.16 | 0.00 | 92 | 1010.6 |
| 20260905062831 | 78 | 148 | 0.0 | 0.0 | 0.00 | 0.16 | 0.00 | 91 | 1010.6 |
| 20260905061830 | 78 | 148 | 0.0 | 0.0 | 0.00 | 0.19 | 0.00 | 90 | 1010.7 |
| 20260905061329 | 78 | 148 | 0.0 | 0.0 | 0.00 | 0.20 | 0.00 | 90 | 1010.7 |
| 20260905060825 | 78 | 148 | 0.0 | 0.0 | 0.00 | 0.22 | 0.00 | 90 | 1010.6 |
| 20260905055820 | 78 | 148 | 0.0 | 0.0 | 0.00 | 0.32 | 0.00 | 90 | 1010.7 |
| 20260905055323 | 78 | 148 | 0.0 | 0.0 | 0.00 | 0.55 | 0.00 | 90 | 1010.5 |
| 20260905054821 | 78 | 148 | 0.0 | 0.0 | 0.00 | 0.63 | 0.00 | 91 | 1010.5 |
| 20260905054318 | 78 | 148 | 0.0 | 0.0 | 0.00 | 0.63 | 0.00 | 91 | 1010.4 |
| 20260905053818 | 78 | 148 | 0.0 | 0.0 | 0.00 | 0.63 | 0.00 | 90 | 1010.5 |
| 20260905053313 | 78 | 148 | 0.0 | 0.0 | 0.00 | 0.63 | 0.00 | 91 | 1010.7 |
| 20260905052815 | 78 | 148 | 0.0 | 0.0 | 0.00 | 0.63 | 0.00 | 91 | 1010.7 |
| 20260905052329 | 78 | 148 | 0.0 | 0.0 | 0.00 | 0.63 | 0.00 | 91 | 1010.8 |
| 20260905051310 | 78 | 144 | 0.0 | 0.0 | 0.00 | 0.63 | 0.00 | 91 | 1010.9 |
| 20260905050305 | 78 | 145 | 0.0 | 0.0 | 0.00 | 0.63 | 0.00 | 91 | 1011.0 |
| 20260905045806 | 78 | 144 | 0.0 | 0.0 | 0.00 | 0.63 | 0.00 | 91 | 1011.1 |
| 20260905044800 | 78 | 144 | 0.0 | 0.0 | 0.00 | 0.63 | 0.00 | 90 | 1011.3 |
| 20260905044255 | 78 | 144 | 0.0 | 0.0 | 0.00 | 0.63 | 0.00 | 90 | 1011.3 |
| 20260905043751 | 78 | 144 | 0.0 | 0.0 | 0.00 | 0.63 | 0.00 | 90 | 1011.4 |
| 20260905043242 | 78 | 144 | 0.0 | 0.0 | 0.00 | 0.63 | 0.00 | 89 | 1011.5 |
| 20260905042233 | 78 | 144 | 0.0 | 0.0 | 0.00 | 0.63 | 0.00 | 89 | 1011.4 |
| 20260905041743 | 78 | 145 | 0.0 | 0.0 | 0.00 | 0.63 | 0.00 | 89 | 1011.5 |
| 20260905041233 | 78 | 144 | 0.0 | 0.0 | 0.00 | 0.63 | 0.00 | 89 | 1011.5 |
| 20260905040735 | 78 | 144 | 0.0 | 0.0 | 0.00 | 0.63 | 0.00 | 89 | 1011.4 |
| 20260905040238 | 78 | 144 | 0.0 | 0.0 | 0.00 | 0.63 | 0.00 | 89 | 1011.4 |
| 20260905035738 | 78 | 145 | 0.0 | 0.0 | 0.00 | 0.63 | 0.63 | 88 | 1011.4 |
| 20260905035233 | 78 | 144 | 0.0 | 0.0 | 0.00 | 0.63 | 0.63 | 88 | 1011.3 |
| 20260905034731 | 78 | 144 | 0.0 | 1.0 | 0.00 | 0.63 | 0.63 | 87 | 1011.4 |
| 20260905034232 | 78 | 145 | 0.0 | 1.0 | 0.00 | 0.63 | 0.63 | 87 | 1011.3 |
| 20260905033730 | 78 | 145 | 0.0 | 0.0 | 0.00 | 0.63 | 0.63 | 87 | 1011.4 |
| 20260905033231 | 78 | 145 | 0.0 | 0.0 | 0.00 | 0.63 | 0.63 | 88 | 1011.5 |
| 20260905032732 | 78 | 145 | 0.0 | 0.0 | 0.00 | 0.63 | 0.63 | 88 | 1011.6 |
| 20260905031731 | 78 | 144 | 0.0 | 0.0 | 0.00 | 0.63 | 0.63 | 89 | 1011.7 |
| 20260905031231 | 78 | 145 | 0.0 | 0.0 | 0.00 | 0.63 | 0.63 | 89 | 1011.7 |
| 20260905030732 | 78 | 144 | 0.0 | 0.0 | 0.00 | 0.63 | 0.63 | 90 | 1011.8 |
| 20260905030232 | 78 | 145 | 0.0 | 0.0 | 0.00 | 0.63 | 0.63 | 90 | 1012.0 |
| 20260905025730 | 78 | 144 | 0.0 | 0.0 | 0.00 | 0.63 | 0.63 | 90 | 1011.9 |
| 20260905025232 | 78 | 145 | 0.0 | 0.0 | 0.00 | 0.63 | 0.63 | 89 | 1011.9 |
| 20260905024736 | 78 | 144 | 0.0 | 0.0 | 0.00 | 0.63 | 0.63 | 89 | 1012.1 |
| 20260905023835 | 78 | 145 | 0.0 | 0.0 | 0.00 | 0.63 | 0.63 | 90 | 1011.9 |
| 20260905022732 | 78 | 144 | 0.0 | 0.0 | 0.00 | 0.63 | 0.63 | 91 | 1012.0 |
| 20260905022233 | 78 | 144 | 0.0 | 0.0 | 0.00 | 0.63 | 0.63 | 90 | 1011.9 |
| 20260905021731 | 78 | 144 | 0.0 | 0.0 | 0.00 | 0.63 | 0.63 | 89 | 1011.8 |
| 20260905021231 | 78 | 144 | 0.0 | 0.0 | 0.00 | 0.63 | 0.63 | 89 | 1012.0 |
| 20260905020736 | 78 | 144 | 0.0 | 0.0 | 0.00 | 0.63 | 0.63 | 89 | 1012.0 |
| 20260905020229 | 78 | 145 | 0.0 | 0.0 | 0.00 | 0.63 | 0.63 | 90 | 1011.9 |
| 20260905015731 | 78 | 144 | 0.0 | 0.0 | 0.00 | 0.63 | 0.63 | 90 | 1012.0 |
| 20260905014734 | 78 | 144 | 0.0 | 0.0 | 0.00 | 0.63 | 0.63 | 91 | 1012.1 |
| 20260905014232 | 78 | 144 | 0.0 | 0.0 | 0.00 | 0.63 | 0.63 | 90 | 1012.0 |
| 20260905013732 | 78 | 144 | 0.0 | 0.0 | 0.00 | 0.63 | 0.63 | 89 | 1012.0 |
| 20260905013232 | 78 | 144 | 0.0 | 0.0 | 0.00 | 0.63 | 0.63 | 88 | 1012.0 |
| 20260905012731 | 78 | 144 | 0.0 | 0.0 | 0.00 | 0.63 | 0.63 | 88 | 1012.1 |
| 20260905012235 | 78 | 144 | 0.0 | 0.0 | 0.00 | 0.63 | 0.63 | 88 | 1012.0 |
| 20260905011737 | 78 | 144 | 0.0 | 0.0 | 0.00 | 0.63 | 0.63 | 88 | 1012.0 |
| 20260905011238 | 79 | 144 | 0.0 | 0.0 | 0.00 | 0.63 | 0.63 | 88 | 1012.1 |
| 20260905010218 | 79 | 144 | 0.0 | 0.0 | 0.00 | 0.63 | 0.63 | 88 | 1012.1 |
| 20260905005220 | 79 | 145 | 0.0 | 0.0 | 0.00 | 0.63 | 0.63 | 87 | 1012.1 |
| 20260905004215 | 79 | 144 | 0.0 | 0.0 | 0.00 | 0.63 | 0.63 | 87 | 1012.0 |
| 20260905003209 | 79 | 145 | 0.0 | 0.0 | 0.00 | 0.63 | 0.63 | 87 | 1011.9 |
| 20260905002710 | 79 | 145 | 0.0 | 0.0 | 0.00 | 0.63 | 0.63 | 85 | 1011.9 |
| 20260905002208 | 80 | 144 | 0.0 | 0.0 | 0.00 | 0.63 | 0.63 | 85 | 1011.9 |
| 20260905001707 | 80 | 145 | 0.0 | 0.0 | 0.00 | 0.63 | 0.63 | 84 | 1011.7 |
| 20260905001205 | 80 | 144 | 0.0 | 0.0 | 0.00 | 0.63 | 0.63 | 84 | 1011.6 |
| 20260905000703 | 80 | 145 | 0.0 | 0.0 | 0.00 | 0.63 | 0.63 | 85 | 1011.4 |
| 20260905000205 | 80 | 145 | 0.0 | 0.0 | 0.00 | 0.63 | 0.63 | 84 | 1011.4 |
| 20260904235706 | 80 | 145 | 0.0 | 0.0 | 0.00 | 0.63 | 0.63 | 83 | 1011.2 |
| 20260904235227 | 80 | 145 | 0.0 | 0.0 | 0.00 | 0.63 | 0.63 | 82 | 1011.1 |
| 20260904234203 | 81 | 145 | 0.0 | 0.0 | 0.00 | 0.63 | 0.63 | 82 | 1011.1 |
| 20260904233702 | 81 | 145 | 0.0 | 0.0 | 0.00 | 0.63 | 0.63 | 82 | 1011.2 |
| 20260904233203 | 81 | 145 | 0.0 | 0.0 | 0.00 | 0.63 | 0.63 | 81 | 1011.2 |
| 20260904232702 | 82 | 145 | 0.0 | 0.0 | 0.00 | 0.63 | 0.63 | 80 | 1011.3 |
| 20260904232153 | 82 | 144 | 0.0 | 0.0 | 0.00 | 0.63 | 0.63 | 80 | 1011.3 |
| 20260904231650 | 82 | 144 | 0.0 | 0.0 | 0.00 | 0.63 | 0.63 | 79 | 1011.4 |
| 20260904231140 | 82 | 145 | 0.0 | 0.0 | 0.00 | 0.63 | 0.63 | 79 | 1011.3 |
| 20260904230639 | 82 | 145 | 0.0 | 0.0 | 0.00 | 0.63 | 0.63 | 79 | 1011.7 |
| 20260904230132 | 82 | 145 | 0.0 | 0.0 | 0.00 | 0.63 | 0.63 | 79 | 1011.9 |
| 20260904225633 | 82 | 145 | 0.0 | 1.0 | 0.00 | 0.63 | 0.63 | 79 | 1012.0 |
| 20260904225134 | 83 | 145 | 0.0 | 1.0 | 0.00 | 0.63 | 0.63 | 79 | 1012.2 |
| 20260904224636 | 83 | 145 | 0.0 | 1.0 | 0.00 | 0.63 | 0.63 | 80 | 1012.1 |
| 20260904224138 | 83 | 145 | 0.0 | 1.0 | 0.00 | 0.63 | 0.63 | 80 | 1012.3 |
| 20260904223633 | 83 | 145 | 0.0 | 1.0 | 0.00 | 0.63 | 0.63 | 78 | 1012.3 |
| 20260904223139 | 83 | 144 | 0.0 | 1.0 | 0.00 | 0.63 | 0.63 | 78 | 1012.4 |
| 20260904222135 | 83 | 144 | 0.0 | 2.0 | 0.00 | 0.63 | 0.63 | 78 | 1012.4 |
| 20260904221134 | 84 | 144 | 0.0 | 2.0 | 0.00 | 0.63 | 0.63 | 78 | 1012.5 |
| 20260904220634 | 84 | 144 | 0.0 | 2.0 | 0.00 | 0.63 | 0.63 | 79 | 1012.5 |
| 20260904220132 | 84 | 144 | 0.0 | 2.0 | 0.00 | 0.63 | 0.63 | 79 | 1012.4 |
| 20260904215635 | 84 | 144 | 0.0 | 1.0 | 0.00 | 0.63 | 0.63 | 78 | 1012.4 |
| 20260904215132 | 84 | 144 | 0.0 | 1.0 | 0.00 | 0.63 | 0.63 | 77 | 1012.3 |
| 20260904214635 | 85 | 144 | 1.0 | 1.0 | 0.00 | 0.63 | 0.63 | 77 | 1012.3 |
| 20260904214133 | 85 | 143 | 1.0 | 2.0 | 0.00 | 0.63 | 0.63 | 78 | 1012.1 |
| 20260904213630 | 85 | 141 | 0.0 | 2.0 | 0.00 | 0.63 | 0.63 | 76 | 1011.8 |
| 20260904213128 | 85 | 129 | 0.0 | 2.0 | 0.00 | 0.63 | 0.63 | 77 | 1011.4 |
| 20260904212621 | 85 | 129 | 0.0 | 2.0 | 0.00 | 0.63 | 0.63 | 75 | 1011.4 |
| 20260904212120 | 85 | 143 | 0.0 | 2.0 | 0.00 | 0.63 | 0.63 | 75 | 1011.5 |
| 20260904211705 | 86 | 143 | 1.0 | 2.0 | 0.00 | 0.63 | 0.63 | 75 | 1011.9 |
| 20260904210618 | 86 | 148 | 1.0 | 4.0 | 0.00 | 0.63 | 0.63 | 75 | 1011.7 |
| 20260904210126 | 86 | 144 | 1.0 | 4.0 | 0.00 | 0.63 | 0.63 | 74 | 1011.9 |
| 20260904205618 | 86 | 198 | 1.0 | 3.0 | 0.00 | 0.63 | 0.63 | 75 | 1012.2 |
| 20260904204618 | 86 | 191 | 1.0 | 3.0 | 0.00 | 0.63 | 0.63 | 74 | 1012.1 |
| 20260904204120 | 86 | 167 | 1.0 | 3.0 | 0.00 | 0.63 | 0.63 | 72 | 1012.1 |
| 20260904203115 | 86 | 178 | 0.0 | 3.0 | 0.00 | 0.63 | 0.63 | 73 | 1011.9 |
| 20260904202110 | 86 | 153 | 1.0 | 5.0 | 0.00 | 0.63 | 0.63 | 73 | 1011.9 |
| 20260904201616 | 86 | 165 | 1.0 | 4.0 | 0.00 | 0.63 | 0.63 | 75 | 1011.9 |
| 20260904201109 | 86 | 198 | 1.0 | 2.0 | 0.00 | 0.63 | 0.63 | 77 | 1012.1 |
| 20260904200608 | 86 | 204 | 1.0 | 2.0 | 0.00 | 0.63 | 0.63 | 74 | 1012.2 |
| 20260904195609 | 85 | 205 | 1.0 | 3.0 | 0.00 | 0.63 | 0.63 | 76 | 1012.3 |
| 20260904195104 | 85 | 204 | 1.0 | 2.0 | 0.00 | 0.63 | 0.63 | 77 | 1012.3 |
| 20260904194608 | 86 | 204 | 1.0 | 3.0 | 0.00 | 0.63 | 0.63 | 77 | 1012.4 |
| 20260904194107 | 86 | 205 | 0.0 | 3.0 | 0.00 | 0.63 | 0.63 | 76 | 1012.5 |
| 20260904193606 | 86 | 205 | 0.0 | 3.0 | 0.00 | 0.63 | 0.63 | 74 | 1012.5 |
| 20260904193202 | 86 | 205 | 0.0 | 2.0 | 0.00 | 0.63 | 0.63 | 75 | 1012.5 |
| 20260904192104 | 86 | 205 | 1.0 | 3.0 | 0.00 | 0.63 | 0.63 | 75 | 1012.6 |
| 20260904191600 | 86 | 148 | 1.0 | 3.0 | 0.00 | 0.63 | 0.63 | 75 | 1012.6 |
| 20260904190058 | 86 | 145 | 1.0 | 2.0 | 0.00 | 0.63 | 0.63 | 75 | 1012.7 |
| 20260904185555 | 86 | 149 | 1.0 | 5.0 | 0.00 | 0.63 | 0.63 | 76 | 1012.8 |
| 20260904185056 | 86 | 153 | 1.0 | 5.0 | 0.00 | 0.63 | 0.63 | 76 | 1012.9 |
| 20260904184558 | 85 | 148 | 1.0 | 3.0 | 0.00 | 0.63 | 0.63 | 75 | 1013.0 |
| 20260904184056 | 85 | 142 | 1.0 | 4.0 | 0.00 | 0.63 | 0.63 | 74 | 1013.0 |
| 20260904183600 | 85 | 150 | 1.0 | 4.0 | 0.00 | 0.63 | 0.63 | 74 | 1013.0 |
| 20260904183100 | 86 | 190 | 1.0 | 4.0 | 0.00 | 0.63 | 0.63 | 74 | 1012.9 |
| 20260904182559 | 86 | 202 | 0.0 | 2.0 | 0.00 | 0.63 | 0.63 | 75 | 1013.1 |
| 20260904182054 | 85 | 202 | 1.0 | 2.0 | 0.00 | 0.63 | 0.63 | 74 | 1013.0 |
| 20260904181600 | 85 | 203 | 1.0 | 2.0 | 0.00 | 0.63 | 0.63 | 75 | 1013.1 |
| 20260904181059 | 85 | 200 | 1.0 | 2.0 | 0.00 | 0.63 | 0.63 | 76 | 1013.1 |
| 20260904180055 | 85 | 186 | 0.0 | 3.0 | 0.00 | 0.63 | 0.63 | 76 | 1013.2 |
| 20260904175602 | 85 | 185 | 1.0 | 4.0 | 0.00 | 0.63 | 0.63 | 74 | 1013.3 |
| 20260904174633 | 85 | 186 | 1.0 | 4.0 | 0.00 | 0.63 | 0.63 | 75 | 1013.4 |
| 20260904173554 | 85 | 200 | 1.0 | 2.0 | 0.00 | 0.63 | 0.63 | 75 | 1013.3 |
| 20260904173049 | 84 | 201 | 1.0 | 2.0 | 0.00 | 0.63 | 0.63 | 74 | 1013.3 |
| 20260904171552 | 84 | 207 | 1.0 | 3.0 | 0.00 | 0.63 | 0.63 | 77 | 1013.4 |
| 20260904171053 | 84 | 180 | 1.0 | 3.0 | 0.00 | 0.63 | 0.63 | 77 | 1013.3 |
| 20260904170551 | 84 | 194 | 1.0 | 3.0 | 0.00 | 0.63 | 0.63 | 79 | 1013.4 |
| 20260904170052 | 84 | 205 | 1.0 | 2.0 | 0.00 | 0.63 | 0.63 | 78 | 1013.3 |
| 20260904165546 | 84 | 205 | 1.0 | 4.0 | 0.00 | 0.63 | 0.63 | 77 | 1013.4 |
| 20260904165055 | 83 | 205 | 2.0 | 6.0 | 0.00 | 0.63 | 0.63 | 80 | 1013.5 |
| 20260904164050 | 83 | 209 | 3.0 | 7.0 | 0.00 | 0.63 | 0.63 | 79 | 1013.6 |
| 20260904163548 | 83 | 210 | 2.0 | 7.0 | 0.00 | 0.63 | 0.63 | 79 | 1013.7 |
| 20260904163046 | 83 | 213 | 3.0 | 7.0 | 0.00 | 0.63 | 0.63 | 78 | 1013.8 |
| 20260904162546 | 83 | 213 | 3.0 | 6.0 | 0.00 | 0.63 | 0.63 | 78 | 1013.9 |
| 20260904162046 | 83 | 215 | 2.0 | 7.0 | 0.00 | 0.63 | 0.63 | 80 | 1013.9 |
| 20260904161618 | 83 | 227 | 2.0 | 7.0 | 0.00 | 0.63 | 0.63 | 80 | 1013.9 |
| 20260904160541 | 82 | 194 | 3.0 | 7.0 | 0.00 | 0.63 | 0.63 | 79 | 1014.0 |
| 20260904160038 | 82 | 182 | 3.0 | 6.0 | 0.00 | 0.63 | 0.63 | 82 | 1013.9 |
| 20260904155539 | 82 | 182 | 3.0 | 8.0 | 0.00 | 0.63 | 0.63 | 79 | 1013.9 |
| 20260904154113 | 81 | 175 | 2.0 | 6.0 | 0.00 | 0.63 | 0.63 | 82 | 1013.7 |
| 20260904153534 | 81 | 198 | 3.0 | 8.0 | 0.00 | 0.63 | 0.63 | 82 | 1013.8 |
| 20260904152034 | 80 | 210 | 3.0 | 7.0 | 0.00 | 0.63 | 0.63 | 83 | 1013.9 |
| 20260904151534 | 80 | 207 | 3.0 | 6.0 | 0.00 | 0.63 | 0.63 | 83 | 1013.7 |
| 20260904151034 | 80 | 146 | 3.0 | 10.0 | 0.00 | 0.63 | 0.63 | 86 | 1013.8 |
| 20260904150539 | 80 | 209 | 3.0 | 10.0 | 0.00 | 0.63 | 0.63 | 84 | 1013.9 |
| 20260904145531 | 79 | 160 | 4.0 | 9.0 | 0.00 | 0.63 | 0.63 | 87 | 1013.9 |
| 20260904144032 | 78 | 211 | 4.0 | 8.0 | 0.00 | 0.63 | 0.63 | 87 | 1013.9 |
| 20260904143535 | 78 | 215 | 4.0 | 8.0 | 0.00 | 0.63 | 0.63 | 88 | 1014.0 |
| 20260904142531 | 77 | 226 | 3.0 | 9.0 | 0.00 | 0.63 | 0.63 | 90 | 1013.9 |
| 20260904142032 | 77 | 173 | 3.0 | 9.0 | 0.00 | 0.63 | 0.63 | 91 | 1013.9 |
| 20260904141532 | 77 | 163 | 3.0 | 7.0 | 0.00 | 0.63 | 0.63 | 90 | 1013.9 |
| 20260904141029 | 77 | 207 | 2.0 | 7.0 | 0.00 | 0.63 | 0.63 | 92 | 1013.7 |
| 20260904140620 | 77 | 205 | 2.0 | 6.0 | 0.00 | 0.63 | 0.63 | 94 | 1013.7 |
| 20260904134031 | 75 | 117 | 2.0 | 9.0 | 0.00 | 0.63 | 0.63 | 100 | 1013.7 |
| 20260904133530 | 75 | 208 | 2.0 | 8.0 | 0.00 | 0.63 | 0.63 | 100 | 1013.7 |
| 20260904133030 | 75 | 208 | 2.0 | 8.0 | 0.00 | 0.63 | 0.63 | 100 | 1013.6 |
| 20260904132535 | 74 | 227 | 2.0 | 8.0 | 0.00 | 0.63 | 0.63 | 100 | 1013.6 |
| 20260904131525 | 74 | 144 | 2.0 | 5.0 | 0.00 | 0.63 | 0.63 | 100 | 1013.7 |
| 20260904131017 | 74 | 146 | 2.0 | 5.0 | 0.00 | 0.63 | 0.63 | 100 | 1013.6 |
| 20260904130520 | 74 | 142 | 1.0 | 5.0 | 0.00 | 0.63 | 0.63 | 100 | 1013.5 |
| 20260904125016 | 74 | 109 | 1.0 | 6.0 | 0.00 | 0.63 | 0.63 | 100 | 1013.5 |
| 20260904124511 | 74 | 111 | 1.0 | 4.0 | 0.00 | 0.63 | 0.63 | 100 | 1013.6 |
| 20260904124012 | 74 | 111 | 1.0 | 6.0 | 0.00 | 0.63 | 0.63 | 100 | 1013.6 |
| 20260904123511 | 73 | 105 | 1.0 | 6.0 | 0.00 | 0.63 | 0.63 | 100 | 1013.6 |
| 20260904123010 | 73 | 107 | 1.0 | 3.0 | 0.00 | 0.63 | 0.63 | 100 | 1013.6 |
| 20260904122509 | 73 | 107 | 1.0 | 4.0 | 0.00 | 0.63 | 0.63 | 100 | 1013.6 |
| 20260904122007 | 73 | 107 | 1.0 | 6.0 | 0.00 | 0.63 | 0.63 | 100 | 1013.5 |
| 20260904121508 | 73 | 105 | 1.0 | 8.0 | 0.00 | 0.63 | 0.63 | 100 | 1013.5 |
| 20260904121014 | 73 | 105 | 1.0 | 8.0 | 0.00 | 0.63 | 0.63 | 100 | 1013.6 |
| 20260904120509 | 73 | 134 | 1.0 | 4.0 | 0.00 | 0.63 | 0.63 | 100 | 1013.6 |
| 20260904115503 | 73 | 134 | 1.0 | 6.0 | 0.00 | 0.63 | 0.63 | 100 | 1013.4 |
| 20260904115006 | 73 | 166 | 1.0 | 6.0 | 0.00 | 0.63 | 0.63 | 100 | 1013.3 |
| 20260904114503 | 73 | 201 | 1.0 | 4.0 | 0.00 | 0.63 | 0.63 | 100 | 1013.5 |
| 20260904114002 | 73 | 133 | 1.0 | 4.0 | 0.00 | 0.63 | 0.63 | 100 | 1013.6 |
| 20260904113502 | 73 | 133 | 1.0 | 5.0 | 0.00 | 0.63 | 0.63 | 100 | 1013.6 |
| 20260904112448 | 73 | 133 | 0.0 | 3.0 | 0.01 | 0.63 | 0.63 | 100 | 1013.6 |
| 20260904111946 | 72 | 133 | 1.0 | 3.0 | 0.01 | 0.63 | 0.63 | 100 | 1013.4 |
| 20260904111445 | 72 | 94 | 0.0 | 2.0 | 0.01 | 0.63 | 0.63 | 100 | 1013.3 |
| 20260904110936 | 72 | 130 | 0.0 | 3.0 | 0.01 | 0.63 | 0.63 | 100 | 1013.3 |
| 20260904110433 | 72 | 110 | 0.0 | 3.0 | 0.01 | 0.63 | 0.63 | 100 | 1013.2 |
| 20260904105932 | 72 | 108 | 0.0 | 2.0 | 0.01 | 0.63 | 0.63 | 100 | 1013.1 |
| 20260904105436 | 72 | 144 | 0.0 | 1.0 | 0.01 | 0.63 | 0.63 | 100 | 1013.0 |
| 20260904104933 | 71 | 146 | 0.0 | 1.0 | 0.01 | 0.63 | 0.63 | 100 | 1012.8 |
| 20260904104435 | 71 | 144 | 0.0 | 1.0 | 0.01 | 0.63 | 0.63 | 100 | 1012.5 |
| 20260904103933 | 71 | 142 | 0.0 | 1.0 | 0.01 | 0.63 | 0.63 | 100 | 1012.5 |
| 20260904103435 | 72 | 145 | 0.0 | 1.0 | 0.01 | 0.63 | 0.63 | 100 | 1012.4 |
| 20260904102437 | 72 | 144 | 0.0 | 1.0 | 0.00 | 0.62 | 0.62 | 100 | 1012.4 |
| 20260904101437 | 72 | 144 | 0.0 | 1.0 | 0.00 | 0.62 | 0.62 | 100 | 1012.5 |
| 20260904100932 | 72 | 144 | 0.0 | 1.0 | 0.00 | 0.63 | 0.62 | 100 | 1012.5 |